When you browse on this site, cookies collect data to enhance your experience and personalize the content and advertising you see.
Visit our Privacy Policy to learn more. By continuing to use the site, you agree to this use of cookies and data.
  • In Österreich
  • Länderverzeichnis
  • Für 7 Tage
  • Wassertemperatur
  • Wetterkarte
  • News
  • Widgets
  • user-avatar
    Anmelden

    Stündliche Wetter Enkamp

    Heute, 12 Dezember, Donnerstag

    Zeit Temperatur Niederschläge Wind Luftdruck Luftfeuchtigkeit
    00:00 -4°C° 0.8 mm 2 m/S 619 mmHg 94%
    01:00 -4°C° 0.9 mm 2 m/S 618 mmHg 94%
    02:00 -3°C° 0.9 mm 2 m/S 618 mmHg 95%
    03:00 -3°C° 0.9 mm 2 m/S 618 mmHg 96%
    04:00 -3°C° 0.6 mm 2 m/S 618 mmHg 96%
    05:00 -4°C° 0.6 mm 2 m/S 618 mmHg 95%
    06:00 -2°C° 0.6 mm 1 m/S 618 mmHg 95%
    07:00 -1°C° 0.5 mm 1 m/S 618 mmHg 93%
    08:00 0°C° 0.5 mm 1 m/S 618 mmHg 90%
    09:00 0°C° 0.5 mm 1 m/S 618 mmHg 87%
    10:00 +1°C° 0.1 mm 1 m/S 618 mmHg 84%
    11:00 +2°C° 0.1 mm 1 m/S 618 mmHg 81%
    12:00 +3°C° 0.1 mm 1 m/S 618 mmHg 78%
    13:00 +2°C° 0.1 mm 1 m/S 617 mmHg 81%
    14:00 +2°C° 0.1 mm 1 m/S 616 mmHg 85%
    15:00 +2°C° 0.1 mm 1 m/S 615 mmHg 88%
    16:00 -1°C° 0.2 mm 2 m/S 614 mmHg 91%
    17:00 -2°C° 0.2 mm 2 m/S 613 mmHg 93%
    18:00 -2°C° 0.2 mm 2 m/S 612 mmHg 95%
    19:00 -2°C° 1.5 mm 2 m/S 612 mmHg 96%
    20:00 -2°C° 1.5 mm 2 m/S 612 mmHg 96%
    21:00 -2°C° 1.5 mm 2 m/S 611 mmHg 97%
    22:00 -2°C° 2.4 mm 2 m/S 611 mmHg 97%
    23:00 -1°C° 2.4 mm 2 m/S 611 mmHg 97%

    Morgen, 13 Dezember, Freitag

    Zeit Temperatur Niederschläge Wind Luftdruck Luftfeuchtigkeit
    00:00 -1°C° 2.4 mm 2 m/S 611 mmHg 98%
    01:00 -1°C° 1.1 mm 2 m/S 611 mmHg 98%
    02:00 -1°C° 1.1 mm 2 m/S 610 mmHg 97%
    03:00 -1°C° 1.1 mm 2 m/S 610 mmHg 97%
    04:00 -1°C° 1.7 mm 2 m/S 610 mmHg 98%
    05:00 -1°C° 1.7 mm 2 m/S 610 mmHg 98%
    06:00 +1°C° 1.7 mm 2 m/S 610 mmHg 98%
    07:00 +1°C° 2.3 mm 2 m/S 610 mmHg 98%
    08:00 +1°C° 2.3 mm 2 m/S 611 mmHg 98%
    09:00 +1°C° 2.3 mm 2 m/S 611 mmHg 98%
    10:00 +2°C° 3.6 mm 2 m/S 611 mmHg 98%
    11:00 +2°C° 3.6 mm 2 m/S 611 mmHg 98%
    12:00 +2°C° 3.6 mm 2 m/S 612 mmHg 98%
    13:00 +1°C° 1.8 mm 3 m/S 612 mmHg 98%
    14:00 +1°C° 1.8 mm 3 m/S 612 mmHg 98%
    15:00 +1°C° 1.8 mm 3 m/S 612 mmHg 98%
    16:00 +1°C° 3.6 mm 3 m/S 613 mmHg 98%
    17:00 +2°C° 3.6 mm 2 m/S 613 mmHg 98%
    18:00 +1°C° 3.6 mm 2 m/S 614 mmHg 99%
    19:00 +2°C° 2.7 mm 2 m/S 614 mmHg 99%
    20:00 +2°C° 2.7 mm 2 m/S 615 mmHg 99%
    21:00 +2°C° 2.7 mm 2 m/S 615 mmHg 99%
    22:00 +2°C° 1 mm 2 m/S 616 mmHg 98%
    23:00 +2°C° 1 mm 2 m/S 616 mmHg 98%

    übermorgen, 14 Dezember, Samstag

    Zeit Temperatur Niederschläge Wind Luftdruck Luftfeuchtigkeit
    00:00 +1°C° 1 mm 3 m/S 617 mmHg 98%
    01:00 +1°C° 0 mm 3 m/S 617 mmHg 98%
    02:00 +2°C° 0 mm 2 m/S 617 mmHg 98%
    03:00 +2°C° 0 mm 2 m/S 617 mmHg 98%
    04:00 +1°C° 0 mm 2 m/S 617 mmHg 97%
    05:00 +1°C° 0 mm 2 m/S 617 mmHg 96%
    06:00 +1°C° 0 mm 2 m/S 618 mmHg 95%
    07:00 +1°C° 0 mm 2 m/S 618 mmHg 94%
    08:00 +1°C° 0 mm 2 m/S 619 mmHg 93%
    09:00 +2°C° 0 mm 2 m/S 619 mmHg 92%
    10:00 +3°C° 0 mm 1 m/S 619 mmHg 92%
    11:00 +4°C° 0 mm 1 m/S 620 mmHg 92%
    12:00 +5°C° 0 mm 1 m/S 620 mmHg 92%
    13:00 +4°C° 0 mm 1 m/S 620 mmHg 93%
    14:00 +3°C° 0 mm 0 m/S 620 mmHg 94%
    15:00 +3°C° 0 mm 0 m/S 619 mmHg 95%
    16:00 +2°C° 0 mm 0 m/S 619 mmHg 94%
    17:00 +2°C° 0 mm 1 m/S 619 mmHg 93%
    18:00 0°C° 0 mm 1 m/S 619 mmHg 92%
    19:00 0°C° 0 mm 1 m/S 619 mmHg 91%
    20:00 0°C° 0 mm 1 m/S 619 mmHg 90%
    21:00 0°C° 0 mm 1 m/S 619 mmHg 88%
    22:00 -1°C° 0 mm 1 m/S 619 mmHg 88%
    23:00 -1°C° 0 mm 1 m/S 619 mmHg 87%

    15 Dezember, Sonntag

    Zeit Temperatur Niederschläge Wind Luftdruck Luftfeuchtigkeit
    00:00 -1°C° 0 mm 1 m/S 619 mmHg 87%
    01:00 -1°C° 0 mm 1 m/S 618 mmHg 84%
    02:00 -1°C° 0 mm 1 m/S 618 mmHg 82%
    03:00 -1°C° 0 mm 1 m/S 618 mmHg 80%
    04:00 -3°C° 0 mm 2 m/S 618 mmHg 78%
    05:00 -3°C° 0 mm 2 m/S 618 mmHg 75%
    06:00 -2°C° 0 mm 2 m/S 618 mmHg 73%
    07:00 -1°C° 0 mm 2 m/S 619 mmHg 76%
    08:00 +2°C° 0 mm 1 m/S 620 mmHg 80%
    09:00 +3°C° 0 mm 1 m/S 621 mmHg 84%
    10:00 +4°C° 0 mm 1 m/S 621 mmHg 84%
    11:00 +4°C° 0 mm 1 m/S 621 mmHg 85%
    12:00 +5°C° 0 mm 1 m/S 621 mmHg 86%
    13:00 +5°C° 0 mm 1 m/S 621 mmHg 87%
    14:00 +4°C° 0 mm 2 m/S 620 mmHg 88%
    15:00 +3°C° 0 mm 2 m/S 620 mmHg 89%
    16:00 +2°C° 0 mm 2 m/S 620 mmHg 89%
    17:00 +1°C° 0 mm 2 m/S 619 mmHg 89%
    18:00 +1°C° 0 mm 2 m/S 619 mmHg 89%
    19:00 +1°C° 0 mm 2 m/S 619 mmHg 88%
    20:00 +1°C° 0 mm 2 m/S 619 mmHg 87%
    21:00 -1°C° 0 mm 2 m/S 619 mmHg 85%
    22:00 -1°C° 0 mm 2 m/S 618 mmHg 85%
    23:00 -1°C° 0 mm 2 m/S 618 mmHg 84%

    16 Dezember, Montag

    Zeit Temperatur Niederschläge Wind Luftdruck Luftfeuchtigkeit
    00:00 -1°C° 0 mm 2 m/S 618 mmHg 83%
    01:00 -1°C° 0 mm 2 m/S 618 mmHg 81%
    02:00 -1°C° 0 mm 2 m/S 617 mmHg 79%
    03:00 -2°C° 0 mm 2 m/S 617 mmHg 78%
    04:00 -2°C° 0 mm 2 m/S 617 mmHg 76%
    05:00 -2°C° 0 mm 2 m/S 617 mmHg 75%
    06:00 -2°C° 0 mm 2 m/S 616 mmHg 73%
    07:00 -1°C° 0 mm 2 m/S 617 mmHg 74%
    08:00 0°C° 0 mm 3 m/S 617 mmHg 76%
    09:00 +1°C° 0 mm 3 m/S 617 mmHg 77%
    10:00 +2°C° 0 mm 3 m/S 617 mmHg 79%
    11:00 +2°C° 0 mm 3 m/S 617 mmHg 80%
    12:00 +3°C° 0 mm 3 m/S 617 mmHg 82%
    13:00 +3°C° 0 mm 3 m/S 617 mmHg 83%
    14:00 +3°C° 0 mm 3 m/S 616 mmHg 83%
    15:00 +2°C° 0 mm 3 m/S 616 mmHg 84%
    16:00 +1°C° 0 mm 3 m/S 615 mmHg 85%
    17:00 +1°C° 0 mm 3 m/S 615 mmHg 86%
    18:00 0°C° 0 mm 3 m/S 614 mmHg 88%
    19:00 0°C° 0 mm 3 m/S 615 mmHg 89%
    20:00 0°C° 0 mm 3 m/S 615 mmHg 90%
    21:00 +1°C° 0 mm 3 m/S 615 mmHg 91%
    22:00 +1°C° 0 mm 2 m/S 615 mmHg 89%
    23:00 +1°C° 0 mm 2 m/S 615 mmHg 88%

    17 Dezember, Dienstag

    Zeit Temperatur Niederschläge Wind Luftdruck Luftfeuchtigkeit
    00:00 +1°C° 0 mm 2 m/S 615 mmHg 87%
    01:00 -1°C° 0 mm 2 m/S 615 mmHg 86%
    02:00 +1°C° 0 mm 1 m/S 615 mmHg 86%
    03:00 0°C° 0 mm 1 m/S 615 mmHg 85%
    04:00 0°C° 0 mm 1 m/S 615 mmHg 86%
    05:00 0°C° 0 mm 1 m/S 615 mmHg 86%
    06:00 0°C° 0 mm 1 m/S 615 mmHg 87%
    07:00 0°C° 0 mm 0 m/S 616 mmHg 86%
    08:00 0°C° 0 mm 0 m/S 617 mmHg 86%
    09:00 +1°C° 0 mm 0 m/S 618 mmHg 86%
    10:00 +2°C° 0 mm 0 m/S 618 mmHg 87%
    11:00 +4°C° 0 mm 1 m/S 619 mmHg 88%
    12:00 +4°C° 0 mm 1 m/S 619 mmHg 88%
    13:00 +4°C° 0.1 mm 1 m/S 619 mmHg 90%
    14:00 +4°C° 0.1 mm 1 m/S 620 mmHg 91%
    15:00 +2°C° 0.1 mm 0 m/S 620 mmHg 92%
    16:00 +3°C° 0 mm 1 m/S 620 mmHg 93%
    17:00 +2°C° 0 mm 1 m/S 620 mmHg 93%
    18:00 +1°C° 0 mm 1 m/S 620 mmHg 94%
    19:00 0°C° 0 mm 1 m/S 621 mmHg 93%
    20:00 0°C° 0 mm 1 m/S 621 mmHg 93%
    21:00 0°C° 0 mm 1 m/S 622 mmHg 92%
    22:00 0°C° 0 mm 1 m/S 622 mmHg 91%
    23:00 0°C° 0 mm 1 m/S 622 mmHg 91%
    Mehr zeigen